#Datum;Uhrzeit;WR;Pac;DaySum;Status;WR;Pac;DaySum;Status;Pdc1;Udc;Temp;WR;Pac;DaySum;Status;Pdc1;Udc;Temp;WR;Pac;DaySum;Status;Pdc1;Udc;Temp;WR;Pac;DaySum;Status;Pdc1;Pdc2;Udc1;Udc2;Temp;WR;Pac;DaySum;Status;Pdc1;Pdc2;Udc1;Udc2;Temp;WR;Pac;DaySum;Status;Pdc1;Udc;Temp;WR;Pac;DaySum;Status;Pdc1;Udc;Temp;WR;Pac;DaySum;Status;Pdc1;Udc;Temp
25.11.20;23:55:00;1;343;14391;0;2;0;1248;0;0;0;0;3;0;702;0;0;0;0;4;0;935;0;0;0;0;5;0;0;0;0;0;0;0;0;6;0;1891;0;0;0;0;0;0;7;0;1119;0;0;0;0;8;0;1138;0;0;0;0;9;0;564;0;0;0;0
25.11.20;23:50:00;1;305;14362;0;2;0;1248;0;0;0;0;3;0;702;0;0;0;0;4;0;935;0;0;0;0;5;0;0;0;0;0;0;0;0;6;0;1891;0;0;0;0;0;0;7;0;1119;0;0;0;0;8;0;1138;0;0;0;0;9;0;564;0;0;0;0
25.11.20;23:45:00;1;310;14336;0;2;0;1248;0;0;0;0;3;0;702;0;0;0;0;4;0;935;0;0;0;0;5;0;0;0;0;0;0;0;0;6;0;1891;0;0;0;0;0;0;7;0;1119;0;0;0;0;8;0;1138;0;0;0;0;9;0;564;0;0;0;0
25.11.20;23:40:00;1;393;14309;0;2;0;1248;0;0;0;0;3;0;702;0;0;0;0;4;0;935;0;0;0;0;5;0;0;0;0;0;0;0;0;6;0;1891;0;0;0;0;0;0;7;0;1119;0;0;0;0;8;0;1138;0;0;0;0;9;0;564;0;0;0;0
25.11.20;23:35:00;1;412;14277;0;2;0;1248;0;0;0;0;3;0;702;0;0;0;0;4;0;935;0;0;0;0;5;0;0;0;0;0;0;0;0;6;0;1891;0;0;0;0;0;0;7;0;1119;0;0;0;0;8;0;1138;0;0;0;0;9;0;564;0;0;0;0
25.11.20;23:30:00;1;450;14243;0;2;0;1248;0;0;0;0;3;0;702;0;0;0;0;4;0;935;0;0;0;0;5;0;0;0;0;0;0;0;0;6;0;1891;0;0;0;0;0;0;7;0;1119;0;0;0;0;8;0;1138;0;0;0;0;9;0;564;0;0;0;0
25.11.20;23:25:00;1;389;14205;0;2;0;1248;0;0;0;0;3;0;702;0;0;0;0;4;0;935;0;0;0;0;5;0;0;0;0;0;0;0;0;6;0;1891;0;0;0;0;0;0;7;0;1119;0;0;0;0;8;0;1138;0;0;0;0;9;0;564;0;0;0;0
25.11.20;23:20:00;1;391;14172;0;2;0;1248;0;0;0;0;3;0;702;0;0;0;0;4;0;935;0;0;0;0;5;0;0;0;0;0;0;0;0;6;0;1891;0;0;0;0;0;0;7;0;1119;0;0;0;0;8;0;1138;0;0;0;0;9;0;564;0;0;0;0
25.11.20;23:15:00;1;436;14139;0;2;0;1248;0;0;0;0;3;0;702;0;0;0;0;4;0;935;0;0;0;0;5;0;0;0;0;0;0;0;0;6;0;1891;0;0;0;0;0;0;7;0;1119;0;0;0;0;8;0;1138;0;0;0;0;9;0;564;0;0;0;0
25.11.20;23:10:00;1;404;14103;0;2;0;1248;0;0;0;0;3;0;702;0;0;0;0;4;0;935;0;0;0;0;5;0;0;0;0;0;0;0;0;6;0;1891;0;0;0;0;0;0;7;0;1119;0;0;0;0;8;0;1138;0;0;0;0;9;0;564;0;0;0;0
25.11.20;23:05:00;1;422;14069;0;2;0;1248;0;0;0;0;3;0;702;0;0;0;0;4;0;935;0;0;0;0;5;0;0;0;0;0;0;0;0;6;0;1891;0;0;0;0;0;0;7;0;1119;0;0;0;0;8;0;1138;0;0;0;0;9;0;564;0;0;0;0
25.11.20;23:00:00;1;458;14033;0;2;0;1248;0;0;0;0;3;0;702;0;0;0;0;4;0;935;0;0;0;0;5;0;0;0;0;0;0;0;0;6;0;1891;0;0;0;0;0;0;7;0;1119;0;0;0;0;8;0;1138;0;0;0;0;9;0;564;0;0;0;0
25.11.20;22:55:00;1;414;13995;0;2;0;1248;0;0;0;0;3;0;702;0;0;0;0;4;0;935;0;0;0;0;5;0;0;0;0;0;0;0;0;6;0;1891;2;0;0;0;0;0;7;0;1119;0;0;0;0;8;0;1138;0;0;0;0;9;0;564;0;0;0;0
25.11.20;22:50:00;1;406;13959;0;2;0;1248;0;0;0;0;3;0;702;0;0;0;0;4;0;935;0;0;0;0;5;0;0;0;0;0;0;0;0;6;0;1891;2;0;0;0;0;0;7;0;1119;0;0;0;0;8;0;1138;0;0;0;0;9;0;564;0;0;0;0
25.11.20;22:45:00;1;416;13925;0;2;0;1248;0;0;0;0;3;0;702;0;0;0;0;4;0;935;0;0;0;0;5;0;0;0;0;0;0;0;0;6;0;1891;2;0;0;0;0;0;7;0;1119;0;0;0;0;8;0;1138;0;0;0;0;9;0;564;0;0;0;0
25.11.20;22:40:00;1;469;13891;0;2;0;1248;0;0;0;0;3;0;702;0;0;0;0;4;0;935;0;0;0;0;5;0;0;0;0;0;0;0;0;6;0;1891;2;0;0;0;0;0;7;0;1119;0;0;0;0;8;0;1138;0;0;0;0;9;0;564;0;0;0;0
25.11.20;22:35:00;1;531;13852;0;2;0;1248;0;0;0;0;3;0;702;0;0;0;0;4;0;935;0;0;0;0;5;0;0;0;0;0;0;0;0;6;0;1891;2;0;0;0;0;0;7;0;1119;0;0;0;0;8;0;1138;0;0;0;0;9;0;564;0;0;0;0
25.11.20;22:30:00;1;563;13808;0;2;0;1248;0;0;0;0;3;0;702;0;0;0;0;4;0;935;0;0;0;0;5;0;0;0;0;0;0;0;0;6;0;1891;2;0;0;0;0;0;7;0;1119;0;0;0;0;8;0;1138;0;0;0;0;9;0;564;0;0;0;0
25.11.20;22:25:00;1;618;13761;0;2;0;1248;0;0;0;0;3;0;702;0;0;0;0;4;0;935;0;0;0;0;5;0;0;0;0;0;0;0;0;6;0;1891;2;0;0;0;0;0;7;0;1119;0;0;0;0;8;0;1138;0;0;0;0;9;0;564;0;0;0;0
25.11.20;22:20:00;1;691;13708;0;2;0;1248;0;0;0;0;3;0;702;0;0;0;0;4;0;935;0;0;0;0;5;0;0;0;0;0;0;0;0;6;0;1891;2;0;0;0;0;0;7;0;1119;0;0;0;0;8;0;1138;0;0;0;0;9;0;564;0;0;0;0
25.11.20;22:15:00;1;643;13649;0;2;0;1248;0;0;0;0;3;0;702;0;0;0;0;4;0;935;0;0;0;0;5;0;0;0;0;0;0;0;0;6;0;1891;2;0;0;0;0;0;7;0;1119;0;0;0;0;8;0;1138;0;0;0;0;9;0;564;0;0;0;0
25.11.20;22:10:00;1;594;13596;0;2;0;1248;0;0;0;0;3;0;702;0;0;0;0;4;0;935;0;0;0;0;5;0;0;0;0;0;0;0;0;6;0;1891;2;0;0;0;0;0;7;0;1119;0;0;0;0;8;0;1138;0;0;0;0;9;0;564;0;0;0;0
25.11.20;22:05:00;1;666;13547;0;2;0;1248;0;0;0;0;3;0;702;0;0;0;0;4;0;935;0;0;0;0;5;0;0;0;0;0;0;0;0;6;0;1891;2;0;0;0;0;0;7;0;1119;0;0;0;0;8;0;1138;0;0;0;0;9;0;564;0;0;0;0
25.11.20;22:00:00;1;716;13492;0;2;0;1248;0;0;0;0;3;0;702;0;0;0;0;4;0;935;0;0;0;0;5;0;0;0;0;0;0;0;0;6;0;1891;2;0;0;0;0;0;7;0;1119;0;0;0;0;8;0;1138;0;0;0;0;9;0;564;0;0;0;0
25.11.20;21:55:00;1;804;13433;0;2;0;1248;0;0;0;0;3;0;702;0;0;0;0;4;0;935;0;0;0;0;5;0;0;0;0;0;0;0;0;6;0;1891;2;0;0;0;0;0;7;0;1119;0;0;0;0;8;0;1138;0;0;0;0;9;0;564;0;0;0;0
25.11.20;21:50:00;1;811;13365;0;2;0;1248;0;0;0;0;3;0;702;0;0;0;0;4;0;935;0;0;0;0;5;0;0;0;0;0;0;0;0;6;0;1891;2;0;0;0;0;0;7;0;1119;0;0;0;0;8;0;1138;0;0;0;0;9;0;564;0;0;0;0
25.11.20;21:45:00;1;872;13296;0;2;0;1248;0;0;0;0;3;0;702;0;0;0;0;4;0;935;0;0;0;0;5;0;0;0;0;0;0;0;0;6;0;1891;2;0;0;0;0;0;7;0;1119;0;0;0;0;8;0;1138;0;0;0;0;9;0;564;0;0;0;0
25.11.20;21:40:00;1;976;13223;0;2;0;1248;0;0;0;0;3;0;702;0;0;0;0;4;0;935;0;0;0;0;5;0;0;0;0;0;0;0;0;6;0;1891;2;0;0;0;0;0;7;0;1119;0;0;0;0;8;0;1138;0;0;0;0;9;0;564;0;0;0;0
25.11.20;21:35:00;1;984;13142;0;2;0;1248;0;0;0;0;3;0;702;0;0;0;0;4;0;935;0;0;0;0;5;0;0;0;0;0;0;0;0;6;0;1891;2;0;0;0;0;0;7;0;1119;0;0;0;0;8;0;1138;0;0;0;0;9;0;564;0;0;0;0
25.11.20;21:30:00;1;1032;13061;0;2;0;1248;0;0;0;0;3;0;702;0;0;0;0;4;0;935;0;0;0;0;5;0;0;0;0;0;0;0;0;6;0;1891;2;0;0;0;0;0;7;0;1119;0;0;0;0;8;0;1138;0;0;0;0;9;0;564;0;0;0;0
25.11.20;21:25:00;1;1053;12975;0;2;0;1248;0;0;0;0;3;0;702;0;0;0;0;4;0;935;0;0;0;0;5;0;0;0;0;0;0;0;0;6;0;1891;2;0;0;0;0;0;7;0;1119;0;0;0;0;8;0;1138;0;0;0;0;9;0;564;0;0;0;0
25.11.20;21:20:00;1;964;12886;0;2;0;1248;0;0;0;0;3;0;702;0;0;0;0;4;0;935;0;0;0;0;5;0;0;0;0;0;0;0;0;6;0;1891;2;0;0;0;0;0;7;0;1119;0;0;0;0;8;0;1138;0;0;0;0;9;0;564;0;0;0;0
25.11.20;21:15:00;1;956;12804;0;2;0;1248;0;0;0;0;3;0;702;0;0;0;0;4;0;935;0;0;0;0;5;0;0;0;0;0;0;0;0;6;0;1891;2;0;0;0;0;0;7;0;1119;0;0;0;0;8;0;1138;0;0;0;0;9;0;564;0;0;0;0
25.11.20;21:10:00;1;994;12724;0;2;0;1248;0;0;0;0;3;0;702;0;0;0;0;4;0;935;0;0;0;0;5;0;0;0;0;0;0;0;0;6;0;1891;2;0;0;0;0;0;7;0;1119;0;0;0;0;8;0;1138;0;0;0;0;9;0;564;0;0;0;0
25.11.20;21:05:00;1;1011;12641;0;2;0;1248;0;0;0;0;3;0;702;0;0;0;0;4;0;935;0;0;0;0;5;0;0;0;0;0;0;0;0;6;0;1891;2;0;0;0;0;0;7;0;1119;0;0;0;0;8;0;1138;0;0;0;0;9;0;564;0;0;0;0
25.11.20;21:00:00;1;1035;12557;0;2;0;1248;0;0;0;0;3;0;702;0;0;0;0;4;0;935;0;0;0;0;5;0;0;0;0;0;0;0;0;6;0;1891;2;0;0;0;0;0;7;0;1119;0;0;0;0;8;0;1138;0;0;0;0;9;0;564;0;0;0;0
25.11.20;20:55:00;1;1084;12470;0;2;0;1248;0;0;0;0;3;0;702;0;0;0;0;4;0;935;0;0;0;0;5;0;0;0;0;0;0;0;0;6;0;1891;2;0;0;0;0;0;7;0;1119;0;0;0;0;8;0;1138;0;0;0;0;9;0;564;0;0;0;0
25.11.20;20:50:00;1;1000;12379;0;2;0;1248;0;0;0;0;3;0;702;0;0;0;0;4;0;935;0;0;0;0;5;0;0;0;0;0;0;0;0;6;0;1891;2;0;0;0;0;0;7;0;1119;0;0;0;0;8;0;1138;0;0;0;0;9;0;564;0;0;0;0
25.11.20;20:45:00;1;990;12296;0;2;0;1248;0;0;0;0;3;0;702;0;0;0;0;4;0;935;0;0;0;0;5;0;0;0;0;0;0;0;0;6;0;1891;2;0;0;0;0;0;7;0;1119;0;0;0;0;8;0;1138;0;0;0;0;9;0;564;0;0;0;0
25.11.20;20:40:00;1;970;12212;0;2;0;1248;0;0;0;0;3;0;702;0;0;0;0;4;0;935;0;0;0;0;5;0;0;0;0;0;0;0;0;6;0;1891;2;0;0;0;0;0;7;0;1119;0;0;0;0;8;0;1138;0;0;0;0;9;0;564;0;0;0;0
25.11.20;20:35:00;1;1054;12132;0;2;0;1248;0;0;0;0;3;0;702;0;0;0;0;4;0;935;0;0;0;0;5;0;0;0;0;0;0;0;0;6;0;1891;2;0;0;0;0;0;7;0;1119;0;0;0;0;8;0;1138;0;0;0;0;9;0;564;0;0;0;0
25.11.20;20:30:00;1;1082;12044;0;2;0;1248;0;0;0;0;3;0;702;0;0;0;0;4;0;935;0;0;0;0;5;0;0;0;0;0;0;0;0;6;0;1891;2;0;0;0;0;0;7;0;1119;0;0;0;0;8;0;1138;0;0;0;0;9;0;564;0;0;0;0
25.11.20;20:25:00;1;1147;11954;0;2;0;1248;0;0;0;0;3;0;702;0;0;0;0;4;0;935;0;0;0;0;5;0;0;0;0;0;0;0;0;6;0;1891;2;0;0;0;0;0;7;0;1119;0;0;0;0;8;0;1138;0;0;0;0;9;0;564;0;0;0;0
25.11.20;20:20:00;1;1032;11860;0;2;0;1248;0;0;0;0;3;0;702;0;0;0;0;4;0;935;0;0;0;0;5;0;0;0;0;0;0;0;0;6;0;1891;2;0;0;0;0;0;7;0;1119;0;0;0;0;8;0;1138;0;0;0;0;9;0;564;0;0;0;0
25.11.20;20:15:00;1;1065;11774;0;2;0;1248;0;0;0;0;3;0;702;0;0;0;0;4;0;935;0;0;0;0;5;0;0;0;0;0;0;0;0;6;0;1891;2;0;0;0;0;0;7;0;1119;0;0;0;0;8;0;1138;0;0;0;0;9;0;564;0;0;0;0
25.11.20;20:10:00;1;846;11687;0;2;0;1248;0;0;0;0;3;0;702;0;0;0;0;4;0;935;0;0;0;0;5;0;0;0;0;0;0;0;0;6;0;1891;2;0;0;0;0;0;7;0;1119;0;0;0;0;8;0;1138;0;0;0;0;9;0;564;0;0;0;0
25.11.20;20:05:00;1;863;11615;0;2;0;1248;0;0;0;0;3;0;702;0;0;0;0;4;0;935;0;0;0;0;5;0;0;0;0;0;0;0;0;6;0;1891;2;0;0;0;0;0;7;0;1119;0;0;0;0;8;0;1138;0;0;0;0;9;0;564;0;0;0;0
25.11.20;20:00:00;1;891;11543;0;2;0;1248;0;0;0;0;3;0;702;0;0;0;0;4;0;935;0;0;0;0;5;0;0;0;0;0;0;0;0;6;0;1891;2;0;0;0;0;0;7;0;1119;0;0;0;0;8;0;1138;0;0;0;0;9;0;564;0;0;0;0
25.11.20;19:55:00;1;924;11469;0;2;0;1248;0;0;0;0;3;0;702;0;0;0;0;4;0;935;0;0;0;0;5;0;0;0;0;0;0;0;0;6;0;1891;2;0;0;0;0;0;7;0;1119;0;0;0;0;8;0;1138;0;0;0;0;9;0;564;0;0;0;0
25.11.20;19:50:00;1;979;11392;0;2;0;1248;0;0;0;0;3;0;702;0;0;0;0;4;0;935;0;0;0;0;5;0;0;0;0;0;0;0;0;6;0;1891;2;0;0;0;0;0;7;0;1119;0;0;0;0;8;0;1138;0;0;0;0;9;0;564;0;0;0;0
25.11.20;19:45:00;1;831;11317;0;2;0;1248;0;0;0;0;3;0;702;0;0;0;0;4;0;935;0;0;0;0;5;0;0;0;0;0;0;0;0;6;0;1891;2;0;0;0;0;0;7;0;1119;0;0;0;0;8;0;1138;0;0;0;0;9;0;564;0;0;0;0
25.11.20;19:40:00;1;840;11247;0;2;0;1248;0;0;0;0;3;0;702;0;0;0;0;4;0;935;0;0;0;0;5;0;0;0;0;0;0;0;0;6;0;1891;2;0;0;0;0;0;7;0;1119;0;0;0;0;8;0;1138;0;0;0;0;9;0;564;0;0;0;0
25.11.20;19:35:00;1;910;11177;0;2;0;1248;0;0;0;0;3;0;702;0;0;0;0;4;0;935;0;0;0;0;5;0;0;0;0;0;0;0;0;6;0;1891;2;0;0;0;0;0;7;0;1119;0;0;0;0;8;0;1138;0;0;0;0;9;0;564;0;0;0;0
25.11.20;19:30:00;1;1035;11100;0;2;0;1248;0;0;0;0;3;0;702;0;0;0;0;4;0;935;0;0;0;0;5;0;0;0;0;0;0;0;0;6;0;1891;2;0;0;0;0;0;7;0;1119;0;0;0;0;8;0;1138;0;0;0;0;9;0;564;0;0;0;0
25.11.20;19:25:00;1;1134;11013;0;2;0;1248;0;0;0;0;3;0;702;0;0;0;0;4;0;935;0;0;0;0;5;0;0;0;0;0;0;0;0;6;0;1891;2;0;0;0;0;0;7;0;1119;0;0;0;0;8;0;1138;0;0;0;0;9;0;564;0;0;0;0
25.11.20;19:20:00;1;1503;10917;0;2;0;1248;0;0;0;0;3;0;702;0;0;0;0;4;0;935;0;0;0;0;5;0;0;0;0;0;0;0;0;6;0;1891;2;0;0;0;0;0;7;0;1119;0;0;0;0;8;0;1138;0;0;0;0;9;0;564;0;0;0;0
25.11.20;19:15:00;1;1181;10790;0;2;0;1248;0;0;0;0;3;0;702;0;0;0;0;4;0;935;0;0;0;0;5;0;0;0;0;0;0;0;0;6;0;1891;2;0;0;0;0;0;7;0;1119;0;0;0;0;8;0;1138;0;0;0;0;9;0;564;0;0;0;0
25.11.20;19:10:00;1;1172;10679;0;2;0;1248;0;0;0;0;3;0;702;0;0;0;0;4;0;935;0;0;0;0;5;0;0;0;0;0;0;0;0;6;0;1891;2;0;0;0;0;0;7;0;1119;0;0;0;0;8;0;1138;0;0;0;0;9;0;564;0;0;0;0
25.11.20;19:05:00;1;1142;10581;0;2;0;1248;0;0;0;0;3;0;702;0;0;0;0;4;0;935;0;0;0;0;5;0;0;0;0;0;0;0;0;6;0;1891;2;0;0;0;0;0;7;0;1119;0;0;0;0;8;0;1138;0;0;0;0;9;0;564;0;0;0;0
25.11.20;19:00:00;1;1414;10485;0;2;0;1248;0;0;0;0;3;0;702;0;0;0;0;4;0;935;0;0;0;0;5;0;0;0;0;0;0;0;0;6;0;1891;2;0;0;0;0;0;7;0;1119;0;0;0;0;8;0;1138;0;0;0;0;9;0;564;0;0;0;0
25.11.20;18:55:00;1;1163;10367;0;2;0;1248;0;0;0;0;3;0;702;0;0;0;0;4;0;935;0;0;0;0;5;0;0;0;0;0;0;0;0;6;0;1891;2;0;0;0;0;0;7;0;1119;0;0;0;0;8;0;1138;0;0;0;0;9;0;564;0;0;0;0
25.11.20;18:50:00;1;2249;10266;0;2;0;1248;0;0;0;0;3;0;702;0;0;0;0;4;0;935;0;0;0;0;5;0;0;0;0;0;0;0;0;6;0;1891;2;0;0;0;0;0;7;0;1119;0;0;0;0;8;0;1138;0;0;0;0;9;0;564;0;0;0;0
25.11.20;18:45:00;1;3574;10090;0;2;0;1248;0;0;0;0;3;0;702;0;0;0;0;4;0;935;0;0;0;0;5;0;0;0;0;0;0;0;0;6;0;1891;2;0;0;0;0;0;7;0;1119;0;0;0;0;8;0;1138;0;0;0;0;9;0;564;0;0;0;0
25.11.20;18:40:00;1;2104;9790;0;2;0;1248;0;0;0;0;3;0;702;0;0;0;0;4;0;935;0;0;0;0;5;0;0;0;0;0;0;0;0;6;0;1891;2;0;0;0;0;0;7;0;1119;0;0;0;0;8;0;1138;0;0;0;0;9;0;564;0;0;0;0
25.11.20;18:35:00;1;1150;9592;0;2;0;1248;0;0;0;0;3;0;702;0;0;0;0;4;0;935;0;0;0;0;5;0;0;0;0;0;0;0;0;6;0;1891;2;0;0;0;0;0;7;0;1119;0;0;0;0;8;0;1138;0;0;0;0;9;0;564;0;0;0;0
25.11.20;18:30:00;1;1129;9497;0;2;0;1248;0;0;0;0;3;0;702;0;0;0;0;4;0;935;0;0;0;0;5;0;0;0;0;0;0;0;0;6;0;1891;2;0;0;0;0;0;7;0;1119;0;0;0;0;8;0;1138;0;0;0;0;9;0;564;0;0;0;0
25.11.20;18:25:00;1;1079;9402;0;2;0;1248;0;0;0;0;3;0;702;0;0;0;0;4;0;935;0;0;0;0;5;0;0;0;0;0;0;0;0;6;0;1891;2;0;0;0;0;0;7;0;1119;0;0;0;0;8;0;1138;0;0;0;0;9;0;564;0;0;0;0
25.11.20;18:20:00;1;1291;9312;0;2;0;1248;0;0;0;0;3;0;702;0;0;0;0;4;0;935;0;0;0;0;5;0;0;0;0;0;0;0;0;6;0;1891;2;0;0;0;0;0;7;0;1119;0;0;0;0;8;0;1138;0;0;0;0;9;0;564;0;0;0;0
25.11.20;18:15:00;1;1069;9214;0;2;0;1248;0;0;0;0;3;0;702;0;0;0;0;4;0;935;0;0;0;0;5;0;0;0;0;0;0;0;0;6;0;1891;2;0;0;0;0;0;7;0;1119;0;0;0;0;8;0;1138;0;0;0;0;9;0;564;0;0;0;0
25.11.20;18:10:00;1;1035;9124;0;2;0;1248;0;0;0;0;3;0;702;0;0;0;0;4;0;935;0;0;0;0;5;0;0;0;0;0;0;0;0;6;0;1891;2;0;0;0;0;0;7;0;1119;0;0;0;0;8;0;1138;0;0;0;0;9;0;564;0;0;0;0
25.11.20;18:05:00;1;955;9036;0;2;0;1248;0;0;0;0;3;0;702;0;0;0;0;4;0;935;0;0;0;0;5;0;0;0;0;0;0;0;0;6;0;1891;2;0;0;0;0;0;7;0;1119;0;0;0;0;8;0;1138;0;0;0;0;9;0;564;0;0;0;0
25.11.20;18:00:00;1;1023;8956;0;2;0;1248;0;0;0;0;3;0;702;0;0;0;0;4;0;935;0;0;0;0;5;0;0;0;0;0;0;0;0;6;0;1891;2;0;0;0;0;0;7;0;1119;0;0;0;0;8;0;1138;0;0;0;0;9;0;564;0;0;0;0
25.11.20;17:55:00;1;1042;8870;0;2;0;1248;0;0;0;0;3;0;702;0;0;0;0;4;0;935;0;0;0;0;5;0;0;0;0;0;0;0;0;6;0;1891;2;0;0;0;0;0;7;0;1119;0;0;0;0;8;0;1138;0;0;0;0;9;0;564;0;0;0;0
25.11.20;17:50:00;1;1128;8785;0;2;0;1248;0;0;0;0;3;0;702;0;0;0;0;4;0;935;0;0;0;0;5;0;0;0;0;0;0;0;0;6;0;1891;2;0;0;0;0;0;7;0;1119;0;0;0;0;8;0;1138;0;0;0;0;9;0;564;0;0;0;0
25.11.20;17:45:00;1;948;8690;0;2;0;1248;0;0;0;0;3;0;702;0;0;0;0;4;0;935;0;0;0;0;5;0;0;0;0;0;0;0;0;6;0;1891;2;0;0;0;0;0;7;0;1119;0;0;0;0;8;0;1138;0;0;0;0;9;0;564;0;0;0;0
25.11.20;17:40:00;1;1197;8610;0;2;0;1248;0;0;0;0;3;0;702;0;0;0;0;4;0;935;0;0;0;0;5;0;0;0;0;0;0;0;0;6;0;1891;2;0;0;0;0;0;7;0;1119;0;0;0;0;8;0;1138;0;0;0;0;9;0;564;0;0;0;0
25.11.20;17:35:00;1;853;8510;0;2;0;1248;0;0;0;0;3;0;702;0;0;0;0;4;0;935;0;0;0;0;5;0;0;0;0;0;0;0;0;6;0;1891;2;0;0;0;0;0;7;0;1119;0;0;0;0;8;0;1138;0;0;0;0;9;0;564;0;0;0;0
25.11.20;17:30:00;1;860;8436;0;2;0;1248;0;0;0;0;3;0;702;0;0;0;0;4;0;935;0;0;0;0;5;0;0;0;0;0;0;0;0;6;0;1891;2;0;0;0;0;0;7;0;1119;0;0;0;0;8;0;1138;0;0;0;0;9;0;564;0;0;0;0
25.11.20;17:25:00;1;868;8365;0;2;0;1248;0;0;0;0;3;0;702;0;0;0;0;4;0;935;0;0;0;0;5;0;0;0;0;0;0;0;0;6;0;1891;2;0;0;0;0;0;7;0;1119;0;0;0;0;8;0;1138;0;0;0;0;9;0;564;0;0;0;0
25.11.20;17:20:00;1;1227;8293;0;2;0;1248;0;0;0;0;3;0;702;0;0;0;0;4;0;935;0;0;0;0;5;0;0;0;0;0;0;0;0;6;0;1891;2;0;0;0;0;0;7;0;1119;0;0;0;0;8;0;1138;0;0;0;0;9;0;564;0;0;0;0
25.11.20;17:15:00;1;823;8206;0;2;0;1248;0;0;0;0;3;0;702;0;0;0;0;4;0;935;0;0;0;0;5;0;0;0;0;0;0;0;0;6;0;1891;2;0;0;0;0;0;7;0;1119;0;0;0;0;8;0;1138;0;0;0;0;9;0;564;0;0;0;0
25.11.20;17:10:00;1;792;8137;0;2;0;1248;0;0;0;0;3;0;702;0;0;0;0;4;0;935;0;0;0;0;5;0;0;0;0;0;0;0;0;6;0;1891;2;0;0;0;0;0;7;0;1119;0;0;0;0;8;0;1138;0;0;0;0;9;0;564;0;0;0;0
25.11.20;17:05:00;1;792;8071;0;2;0;1248;0;0;0;0;3;0;702;0;0;0;0;4;0;935;0;0;0;0;5;0;0;0;0;0;0;0;0;6;0;1891;2;0;0;0;0;0;7;0;1119;0;0;0;0;8;0;1138;0;0;0;0;9;0;564;0;0;0;0
25.11.20;17:00:00;1;839;8004;0;2;0;1248;0;0;0;0;3;0;702;0;0;0;0;4;0;935;0;0;0;0;5;0;0;0;0;0;0;0;0;6;0;1891;2;0;0;0;0;0;7;0;1119;0;0;0;0;8;0;1138;0;0;0;0;9;0;564;0;0;0;0
25.11.20;16:55:00;1;840;7934;0;2;0;1248;0;0;0;0;3;0;702;0;0;0;0;4;0;935;0;0;0;0;5;0;0;0;0;0;0;0;0;6;0;1891;2;0;0;0;0;0;7;0;1119;0;0;0;0;8;0;1138;0;0;0;0;9;0;564;0;0;0;0
25.11.20;16:50:00;1;898;7864;0;2;0;1248;0;0;0;0;3;0;702;0;0;0;0;4;0;935;0;0;0;0;5;0;0;0;0;0;0;0;0;6;0;1891;2;0;0;0;0;0;7;0;1119;0;0;0;0;8;0;1138;0;0;0;0;9;0;564;0;0;0;0
25.11.20;16:45:00;1;967;7790;0;2;0;1248;0;0;0;0;3;0;702;0;0;0;0;4;0;935;0;0;0;0;5;0;0;0;0;0;0;0;0;6;0;1891;2;0;0;0;0;0;7;0;1119;0;0;0;0;8;0;1138;0;0;0;0;9;0;564;0;0;0;0
25.11.20;16:40:00;1;996;7711;0;2;0;1248;0;0;0;0;3;0;702;0;0;0;0;4;0;935;0;0;0;0;5;0;0;0;0;0;0;0;0;6;0;1891;2;0;0;0;0;0;7;0;1119;0;0;0;0;8;0;1138;0;0;0;0;9;0;564;0;0;0;0
25.11.20;16:35:00;1;989;7627;0;2;0;1248;0;0;0;0;3;0;702;0;0;35;1;4;0;935;0;0;0;0;5;0;0;0;0;0;0;0;0;6;0;1891;2;0;0;0;0;0;7;0;1119;0;0;0;0;8;0;1138;0;0;0;0;9;0;564;0;0;0;0
25.11.20;16:30:00;1;1004;7546;0;2;0;1248;0;0;199;6;3;0;702;6;0;289;12;4;0;935;0;0;0;0;5;0;0;0;0;0;0;0;0;6;0;1891;2;0;0;0;0;0;7;0;1119;0;0;0;0;8;0;1138;0;0;0;0;9;0;564;0;0;0;0
25.11.20;16:25:00;1;1012;7462;0;2;0;1248;6;0;296;9;3;0;702;6;0;328;13;4;0;935;0;0;60;6;5;0;0;0;0;0;0;0;0;6;0;1891;2;0;0;0;0;1;7;0;1119;0;0;0;0;8;0;1138;0;0;0;0;9;0;564;0;0;0;0
25.11.20;16:20:00;1;937;7378;0;2;0;1248;6;0;318;9;3;0;702;6;0;381;13;4;0;935;1;0;92;8;5;0;0;0;0;0;0;0;0;6;0;1891;2;0;0;0;0;2;7;0;1119;0;0;0;0;8;0;1138;0;0;0;0;9;0;564;0;0;0;0
25.11.20;16:15:00;1;827;7297;0;2;0;1248;6;0;340;9;3;0;702;6;0;406;13;4;0;935;1;0;112;8;5;0;0;0;0;0;0;0;0;6;0;1891;2;7;6;161;348;20;7;0;1119;0;0;41;2;8;0;1138;0;0;84;4;9;0;564;0;0;220;7
25.11.20;16:10:00;1;838;7228;0;2;0;1248;6;0;360;9;3;0;702;6;0;419;13;4;0;935;1;0;138;8;5;0;0;0;0;0;0;0;0;6;0;1891;23;3;5;515;226;20;7;0;1119;6;0;276;13;8;0;1138;6;0;282;13;9;0;564;6;0;301;9
25.11.20;16:05:00;1;727;7158;0;2;0;1248;6;0;377;10;3;0;702;3;1;439;13;4;0;935;1;0;164;8;5;0;0;0;0;0;0;0;0;6;0;1891;23;4;5;242;491;20;7;0;1119;6;0;319;13;8;0;1138;6;0;325;13;9;0;564;6;0;340;9
25.11.20;16:00:00;1;659;7097;0;2;0;1248;6;0;391;10;3;0;702;6;1;478;13;4;0;935;1;0;192;9;5;0;0;0;0;0;0;0;0;6;0;1891;23;5;6;183;567;21;7;0;1119;6;0;371;13;8;0;1138;6;0;378;13;9;0;564;6;0;390;9
25.11.20;15:55:00;1;586;7042;0;2;0;1248;6;0;402;10;3;0;702;6;3;489;13;4;0;935;1;0;213;9;5;0;0;0;0;0;0;0;0;6;0;1891;23;2;7;499;581;21;7;0;1119;6;0;410;13;8;0;1138;6;0;400;13;9;0;564;6;0;422;9
25.11.20;15:50:00;1;604;6993;0;2;0;1248;6;0;410;10;3;1;702;6;3;502;13;4;0;935;3;0;209;9;5;0;0;0;0;0;0;0;0;6;0;1891;8;4;3;418;591;22;7;0;1119;6;0;429;14;8;0;1138;6;0;434;13;9;0;564;6;0;468;9
25.11.20;15:45:00;1;625;6942;0;2;1;1248;6;9;396;10;3;2;701;6;3;508;13;4;0;935;3;0;229;9;5;0;0;0;0;0;0;0;0;6;0;1891;23;1;9;544;596;22;7;1;1119;6;3;421;14;8;0;1138;6;1;441;13;9;0;564;6;1;476;9
25.11.20;15:40:00;1;656;6889;0;2;2;1248;6;5;410;10;3;0;701;6;0;538;13;4;0;935;3;0;229;9;5;0;0;0;0;0;0;0;0;6;58;1890;4;28;37;459;434;23;7;0;1119;3;4;434;14;8;1;1138;3;3;438;14;9;0;564;6;0;523;9
25.11.20;15:35:00;1;707;6835;0;2;5;1248;6;13;405;11;3;0;701;4;4;521;13;4;0;935;3;0;199;10;5;0;0;0;0;0;0;0;0;6;62;1885;4;20;29;459;434;23;7;4;1119;6;8;443;14;8;2;1138;6;4;463;14;9;1;564;4;2;516;10
25.11.20;15:30:00;1;634;6777;0;2;0;1247;6;0;432;11;3;1;701;6;6;529;13;4;2;935;3;2;199;10;5;0;0;0;0;0;0;0;0;6;81;1880;4;25;32;459;434;23;7;0;1118;6;4;475;14;8;0;1137;6;4;478;14;9;2;564;6;3;526;10
25.11.20;15:25:00;1;612;6722;0;2;12;1247;3;21;410;11;3;2;701;6;6;532;14;4;5;935;3;5;199;10;5;0;0;0;0;0;0;0;0;6;85;1873;4;44;57;459;433;23;7;4;1118;6;13;457;14;8;2;1137;6;6;484;14;9;1;564;6;4;533;10
25.11.20;15:20:00;1;682;6671;0;2;54;1246;4;79;362;11;3;3;701;6;8;541;14;4;21;934;3;22;198;10;5;0;0;0;0;0;0;0;0;6;106;1866;4;49;57;459;434;23;7;4;1118;6;9;494;15;8;7;1137;6;9;495;14;9;3;564;6;5;545;10
25.11.20;15:15:00;1;634;6618;0;2;71;1241;4;96;371;11;3;6;701;6;11;548;14;4;32;932;3;33;198;10;5;0;0;0;0;0;0;0;0;6;128;1856;4;62;78;459;434;23;7;40;1117;6;61;381;15;8;40;1137;6;60;388;15;9;4;563;6;7;555;10
25.11.20;15:10:00;1;512;6571;0;2;62;1236;4;88;382;11;3;4;700;6;9;548;14;4;21;930;3;22;198;10;5;0;0;0;0;0;0;0;0;6;122;1846;4;57;70;459;434;23;7;45;1114;4;73;349;15;8;44;1133;4;74;358;15;9;3;563;6;6;557;10
25.11.20;15:05:00;1;465;6528;0;2;60;1230;4;85;376;11;3;4;700;4;9;542;14;4;24;928;3;25;198;10;5;0;0;0;0;0;0;0;0;6;118;1835;4;48;60;459;433;23;7;44;1110;4;73;352;15;8;49;1129;4;75;359;15;9;4;563;4;7;553;10
25.11.20;15:00:00;1;500;6490;0;2;74;1225;4;99;373;12;3;6;700;3;11;547;14;4;35;926;3;36;197;10;5;0;0;0;0;0;0;0;0;6;126;1826;4;41;54;459;434;23;7;54;1106;4;76;384;15;8;52;1125;4;81;395;15;9;5;562;3;7;554;10
25.11.20;14:55:00;1;526;6449;0;2;93;1219;4;119;377;12;3;20;699;6;29;503;14;4;53;923;3;55;197;10;5;0;0;0;0;0;0;0;0;6;153;1815;4;55;64;459;433;23;7;50;1102;4;88;404;15;8;60;1121;4;93;434;15;9;6;562;6;10;554;10
25.11.20;14:50:00;1;578;6405;0;2;107;1212;4;132;350;12;3;60;697;4;94;459;15;4;66;918;3;68;198;10;5;0;0;0;0;0;0;0;0;6;175;1802;4;82;91;459;434;23;7;77;1098;4;106;367;15;8;80;1116;4;106;449;15;9;13;562;6;20;537;10
25.11.20;14:45:00;1;539;6358;0;2;117;1203;4;142;370;12;3;62;692;4;100;487;15;4;71;913;3;74;198;10;5;0;0;0;0;0;0;0;0;6;188;1787;4;87;97;459;434;23;7;75;1091;4;106;400;15;8;79;1109;4;112;421;15;9;7;561;6;10;565;10
25.11.20;14:40:00;1;529;6312;0;2;137;1193;4;164;378;12;3;77;687;4;111;480;15;4;89;907;3;93;210;10;5;0;0;0;0;0;0;0;0;6;201;1771;4;110;118;459;434;23;7;107;1085;4;131;442;15;8;100;1103;4;134;450;15;9;7;560;6;11;570;11
25.11.20;14:35:00;1;549;6268;0;2;144;1182;4;172;386;12;3;79;681;4;118;511;15;4;96;900;5;100;214;10;5;0;0;0;0;0;0;0;0;6;224;1755;4;109;118;459;434;23;7;119;1076;4;155;478;15;8;127;1094;4;160;472;15;9;73;560;4;96;480;11
25.11.20;14:30:00;1;586;6223;0;2;124;1170;4;151;376;12;3;67;674;4;103;500;15;4;77;892;3;80;199;10;5;0;0;0;0;0;0;0;0;6;193;1736;4;87;96;459;434;23;7;107;1067;4;143;426;15;8;103;1084;4;137;477;15;9;10;554;6;13;572;11
25.11.20;14:25:00;1;622;6174;0;2;129;1159;4;159;386;12;3;73;669;4;107;461;15;4;78;885;3;81;199;10;5;0;0;0;0;0;0;0;0;6;196;1720;4;94;108;459;434;23;7;119;1057;4;146;414;15;8;112;1076;4;142;464;15;9;10;553;6;14;572;11
25.11.20;14:20:00;1;639;6122;0;2;144;1149;4;171;378;12;3;81;663;4;117;477;15;4;96;879;3;100;215;10;5;0;0;0;0;0;0;0;0;6;210;1704;4;92;101;459;434;23;7;124;1047;4;156;389;15;8;132;1066;4;163;456;15;9;59;552;6;79;495;11
25.11.20;14:15:00;1;570;6069;0;2;159;1137;4;189;392;12;3;93;656;4;128;480;15;4;112;871;5;117;227;10;5;0;0;0;0;0;0;0;0;6;231;1686;4;88;97;459;434;23;7;145;1037;4;175;415;15;8;148;1056;4;179;422;15;9;78;548;4;103;498;11
25.11.20;14:10:00;1;603;6019;0;2;162;1123;4;188;390;12;3;92;648;4;130;478;15;4;116;861;5;120;226;10;5;0;0;0;0;0;0;0;0;6;240;1666;4;103;109;459;433;23;7;164;1025;4;188;409;15;8;167;1043;4;196;422;15;9;86;541;4;113;498;11
25.11.20;14:05:00;1;591;5968;0;2;170;1110;4;198;385;12;3;101;640;4;137;496;15;4;122;852;5;127;231;10;5;0;0;0;0;0;0;0;0;6;242;1646;4;122;137;459;434;23;7;162;1011;4;201;429;15;8;167;1029;4;202;444;15;9;89;534;4;113;478;11
25.11.20;14:00:00;1;685;5919;0;2;164;1095;4;193;389;12;3;95;632;4;132;509;15;4;118;841;5;123;232;10;5;0;0;0;0;0;0;0;0;6;243;1626;4;124;138;459;433;23;7;160;998;4;191;413;15;8;158;1016;4;195;420;15;9;86;527;4;109;457;11
25.11.20;13:55:00;1;425;5861;0;2;176;1082;4;206;396;12;3;102;624;4;141;503;15;4;124;832;5;129;230;10;5;0;0;0;0;0;0;0;0;6;258;1606;4;105;128;459;494;23;7;154;984;4;192;416;15;8;161;1002;4;197;424;15;9;86;519;4;110;502;11
25.11.20;13:50:00;1;340;5830;0;2;203;1067;4;233;388;12;3;124;615;4;158;486;15;4;155;821;5;161;233;10;5;0;0;0;0;0;0;0;0;6;316;1584;4;144;187;476;558;23;7;180;972;4;205;406;15;8;180;989;4;214;421;15;9;96;512;4;122;504;11
25.11.20;13:45:00;1;302;5801;0;2;220;1050;4;252;396;12;3;132;605;4;169;520;15;4;174;808;5;181;233;10;5;0;0;0;0;0;0;0;0;6;369;1557;4;182;204;585;565;23;7;199;956;4;240;434;15;8;208;974;4;245;444;15;9;110;504;4;138;508;11
25.11.20;13:40:00;1;291;5775;0;2;232;1032;4;263;396;12;3;139;594;4;175;523;15;4;178;794;5;186;233;10;5;0;0;0;0;0;0;0;0;6;380;1526;4;190;211;581;572;23;7;228;940;4;257;464;15;8;224;956;4;260;466;15;9;120;495;4;146;514;11
25.11.20;13:35:00;1;313;5751;0;2;248;1012;4;278;390;12;3;148;582;4;188;522;15;4;199;779;5;207;235;10;5;0;0;0;0;0;0;0;0;6;410;1494;4;179;201;575;567;23;7;244;921;4;280;475;15;8;249;938;4;288;456;15;9;132;485;4;161;530;11
25.11.20;13:30:00;1;339;5725;0;2;244;992;4;275;394;12;3;146;570;4;185;518;15;4;195;762;5;203;230;10;5;0;0;0;0;0;0;0;0;6;410;1459;4;191;211;581;571;23;7;236;900;4;274;446;15;8;240;917;4;276;463;15;9;127;474;4;157;528;11
25.11.20;13:25:00;1;365;5697;0;2;255;971;4;285;392;12;3;151;558;4;189;521;15;4;205;746;5;214;234;10;5;0;0;0;0;0;0;0;0;6;414;1425;4;209;232;573;568;23;7;261;881;4;300;468;15;8;266;897;4;304;474;15;9;141;463;4;169;530;11
25.11.20;13:20:00;1;442;5666;0;2;235;950;4;267;394;12;3;144;545;4;177;520;15;4;192;729;5;200;235;10;5;0;0;0;0;0;0;0;0;6;406;1390;4;185;207;575;566;23;7;247;859;4;291;482;15;8;258;875;4;297;479;15;9;139;452;4;166;532;11
25.11.20;13:15:00;1;364;5630;0;2;229;930;4;261;393;12;3;140;533;4;177;501;15;4;181;713;5;188;234;10;5;0;0;0;0;0;0;0;0;6;381;1356;4;197;217;580;567;23;7;222;838;4;259;466;15;8;225;853;4;258;448;15;9;119;440;4;147;526;11